Regional Weather Roundup
Issued by NWS Newport/Morehead, NC

Home | Current Version | Previous Version | Text Only | Print | Product List | Glossary On
Versions: 1 2 3 4 5 6 7 8 9 10 11 12 13 14 15 16 17 18 19 20 21 22 23 24 25 26 27 28 29 30 31 32 33 34 35 36 37 38 39 40 41 42 43 44 45 46 47 48 49 50
759
ASUS42 KMHX 241025
RWRMHX
WEATHER ROUNDUP FOR EASTERN NORTH CAROLINA
NATIONAL WEATHER SERVICE NEWPORT/MOREHEAD CITY NC
600 AM EDT WED AUG 24 2016

NOTE: "FAIR" INDICATES FEW OR NO CLOUDS BELOW 12,000 FEET
WITH NO SIGNIFICANT WEATHER AND/OR OBSTRUCTIONS TO VISIBILITY

NCZ015>017-031-032-045>047-102-103-241100-
NORTH COAST

CITY           SKY/WX    TMP DP  RH WIND       PRES   REMARKS
EDENTON        PTCLDY    63  63 100 CALM      30.27S
ELIZABETH CITY PTCLDY    63  60  90 W5        30.27R
KITTY HAWK     SUNNY     73  67  83 NE3       30.24S
MANTEO         CLEAR     72  65  78 NE7       30.26S

$$

NCZ045>047-081-094-103-104-241100-
CENTRAL COAST

CITY           SKY/WX    TMP DP  RH WIND       PRES   REMARKS
FRISCO         CLEAR     74  67  78 NE8       30.24R

$$

NCZ095-097-098-100-101-241100-
SOUTHERN COAST

CITY           SKY/WX    TMP DP  RH WIND       PRES   REMARKS
BEAUFORT       MOCLDY    68  63  84 N6        30.24S
CEDAR ISLAND   NOT AVBL
JACKSONVILLE   CLEAR     68  61  78 N5        30.25R
PINEY ISLAND   NOT AVBL
WILMINGTON     CLEAR     67  63  87 NE7       30.24R


$$

NCZ011>013-027>030-043-044-078>080-089-090>093-098-241100-
COASTAL PLAIN

CITY           SKY/WX    TMP DP  RH WIND       PRES   REMARKS
AHOSKIE        MOCLDY    59  58  98 CALM      30.29R
CLINTON        CLEAR     65  65  99 CALM      30.28R
ELIZABETHTOWN  CLEAR     66  65  97 CALM      30.27R
GOLDSBORO      CLEAR     65  65 100 CALM      30.26R
GREENVILLE     PTCLDY    61  61 100 CALM      30.28S
HAVELOCK       PTCLDY    71  63  75 NE6       30.25S
KENANSVILLE    NOT AVBL
KINSTON        CLEAR     62  62  97 CALM      30.28R
NEW BERN       MOCLDY    66  62  87 N5        30.26S
RICHLANDS      CLEAR     62  61  96 CALM      30.26R
ROCKY MOUNT    CLEAR     62  62 100 CALM      30.29R
WASHINGTON     PTCLDY    61  59  94 N3        30.27S
WHITEVILLE     CLEAR     68  64  86 CALM      30.26R

$$

AMZ130-135-150-152-154-156-158-170-250-252-270-ANZ085-086-088-633-658-670-241100-
MARINE OBSERVATIONS

STATION/POSITION TIME  TEMP    WIND        PRES    WAVE   SWELL
                       AIR SEA DIR/SP/G            HT/PER HT/PER
                 (UTC) (F)     (DEG/KT/KT) (MB)    (FT/S) (FT/S)
CHESAPEAKE LIGHT NOT AVBL
64 E VA BEACH    0950   77 81   50/ 12/ 14 1024.0    2/ 8   2/ 8
DUCK             1000   76 78   40/  8/ 10 1023.9
2 E DUCK         0911      78                N/A     3/ 6
OREGON INLET     1000   75 78   30/  7/ 10 1024.0
13E OREGON INLT  1000      77                N/A     3/ 5   2/ 5
HATTERAS CG      1000   76 79   30/  8/ 12 1023.5
DIAMOND BUOY     0950   79 84   30/ 14/ 16 1023.1    3/ 6   2/ 6
CAPE LOOKOUT     1000   74      10/  7/  9 1023.5
BEAUFORT LAB     1000   71 81   30/  4/  6 1023.4
30 SE NEW RVR IN 1008   79 84   30/ 14/ 17 1023.3
30 SE NEW RVR IN 0925      84                N/A     3/ 5
27 SE WRIGHTSVLE 1008   81 84   40/ 14/ 17 1023.5
5 SE WRIGHTSVLE  0908   80 83   50/ 16/ 19 1024.2
225 S CAPE HAT   0950   82 85   60/ 16/ 19 1020.3    4/ 6   2/12
41 SE CHARLESTON 0950   81 84   70/ 17/ 21 1021.5    4/ 5   2/ 7

$$




USA.gov is the U.S. government's official web portal to all federal, state and local government web resources and services.